Location: ??????????
(42.1626°N, 44.1160°E)
Time: 14:54:28
(UTC+00:00)

SJ 16-02 - Pass Details

Date: 03 March 2021
Orbit: 605 x 617 km, 75.0° (Epoch: 14 April)

Event Time Altitude Azimuth Distance (km) Brightness Sun altitude
Rises 17:59:20 0° 338° (NNW) 2,882 5.4 -34.0°
Reaches altitude 10° 18:01:35 10° 335° (NNW) 1,975 4.5 -34.4°
Enters shadow 18:02:29 16° 333° (NNW) 1,626 4.0 -34.5°
